Zurück zum Katalog

COSMOS 1722

AktivMilitärLEO
NORAD 16455·PAYLOAD·🇷🇺 Russia

Gestartet Jan 9, 1986 von Plesetsk Cosmodrome

Loading…

Nächste Überflüge (nächste 24 Stunden)

TLE

AktuellSource: Space-Track

Epoche: Sep 14, 2026, 15:24 UTC

1 16455U 86002G   26257.64183927 -.00000016  00000-0 -72500-6 0  9998
2 16455  73.9922  17.9496 0045972   3.1876  10.7803 12.54043721862276

Verfolge COSMOS 1722 in Echtzeit mit AllMySat

Download on the App Store